This is the latest recevied weather packets stored in our database for station/object DK9XR-14. If no packets are shown the sender has not sent any weather packets the latest 1 day(s).
| Time | Temp. | Humidity | Pressure | Rain* | Wind** | Luminosity | Snow |
|---|---|---|---|---|---|---|---|
| 1778057344 | 16.11° C | 66% | 1007.8 hPa | 0 mm | - | - | - |
| 1778055242 | 14.44° C | 74% | 1007.9 hPa | 0 mm | - | - | - |
| 1778054343 | 13.89° C | 76% | 1007.8 hPa | 0 mm | - | - | - |
| 1778054043 | 13.89° C | 77% | 1007.9 hPa | 0 mm | - | - | - |
| 1778053744 | 13.89° C | 77% | 1008 hPa | 0 mm | - | - | - |
| 1778053144 | 13.33° C | 78% | 1008 hPa | 0 mm | - | - | - |
| 1778052544 | 13.33° C | 80% | 1008.2 hPa | 0 mm | - | - | - |
| 1778051643 | 13.33° C | 80% | 1008.3 hPa | 0 mm | - | - | - |
| 1778051342 | 12.78° C | 81% | 1008.3 hPa | 0 mm | - | - | - |
| 1778050743 | 12.78° C | 81% | 1008.3 hPa | 0 mm | - | - | - |
| 1778049843 | 12.22° C | 83% | 1008.2 hPa | 0 mm | - | - | - |
| 1778049244 | 12.22° C | 83% | 1008.1 hPa | 0 mm | - | - | - |
| 1778048644 | 11.67° C | 85% | 1008.1 hPa | 0 mm | - | - | - |
| 1778047443 | 11.11° C | 87% | 1008.3 hPa | 0 mm | - | - | - |
| 1778046842 | 11.11° C | 87% | 1008.3 hPa | 0 mm | - | - | - |
| 1778046544 | 10.56° C | 88% | 1008.3 hPa | 0 mm | - | - | - |
| 1778046242 | 10.56° C | 89% | 1008.2 hPa | 0 mm | - | - | - |
| 1778045943 | 10.56° C | 91% | 1008.2 hPa | 0 mm | - | - | - |
| 1778045042 | 9.44° C | 92% | 1008.3 hPa | 0 mm | - | - | - |
| 1778044141 | 8.89° C | 93% | 1008.5 hPa | 0 mm | - | - | - |
| 1778043238 | 8.33° C | 93% | 1008.6 hPa | 0 mm | - | - | - |
| 1778042637 | 8.33° C | 93% | 1008.5 hPa | 0 mm | - | - | - |
| 1778041736 | 7.78° C | 93% | 1008.7 hPa | 0 mm | - | - | - |
| 1778041438 | 7.78° C | 93% | 1008.8 hPa | 0 mm | - | - | - |
| 1778040835 | 8.33° C | 92% | 1008.9 hPa | 0 mm | - | - | - |
* Rain latest hour (hover to see other rain measurements)
** Current wind speed in m/s (hover to see current wind gust speed)